"read_dt","SO2 (ppb)","flags","PMT voltage (V)","lamp voltage (V)","lamp intensity (Hz)","internal temp (C)","react chamber temp (C)","sample flow (l/min)","pres (mmHg)","SO2 bkg (ppb)","SO2 coefficient"
2016-01-25 00:00:00,1867E-3,5C000400,-0724,0834,12178,024.8,045.3,0.261,742.7,01.18,0.508
2016-01-25 00:01:00,1849E-3,5C000400,-0724,0833,12323,024.8,045.3,0.261,742.8,01.18,0.508
2016-01-25 00:02:00,1846E-3,5C000400,-0724,0834,12285,024.8,045.3,0.261,742.7,01.18,0.508
2016-01-25 00:03:00,1837E-3,5C000400,-0724,0834,12074,024.8,045.3,0.261,742.8,01.18,0.508
2016-01-25 00:04:00,1939E-3,5C000400,-0724,0835,12172,024.8,045.3,0.261,742.8,01.18,0.508
2016-01-25 00:05:00,1916E-3,5C000400,-0724,0834,12209,024.8,045.3,0.261,742.7,01.18,0.508
2016-01-25 00:06:00,1912E-3,5C000400,-0724,0834,12117,024.8,045.3,0.261,742.7,01.18,0.508
2016-01-25 00:07:00,1967E-3,5C000400,-0724,0833,12132,024.8,045.3,0.261,742.7,01.18,0.508
2016-01-25 00:08:00,1898E-3,5C000400,-0724,0834,12072,024.8,045.3,0.261,742.8,01.18,0.508
2016-01-25 00:09:00,1923E-3,5C000400,-0724,0834,12119,024.8,045.3,0.261,742.7,01.18,0.508
2016-01-25 00:10:00,1950E-3,5C000400,-0724,0834,12108,024.8,045.3,0.261,742.8,01.18,0.508
2016-01-25 00:11:00,1811E-3,5C000400,-0724,0833,12264,024.8,045.3,0.261,742.8,01.18,0.508
2016-01-25 00:12:00,1931E-3,5C000400,-0724,0834,12086,024.9,045.3,0.261,742.8,01.18,0.508
2016-01-25 00:13:00,1839E-3,5C000400,-0724,0834,12238,024.9,045.3,0.261,742.8,01.18,0.508
2016-01-25 00:14:00,1869E-3,5C000400,-0724,0834,12142,024.9,045.3,0.261,742.8,01.18,0.508
2016-01-25 00:15:00,1913E-3,5C000400,-0724,0835,12200,024.9,045.3,0.261,742.8,01.18,0.508
2016-01-25 00:16:00,1810E-3,5C000400,-0724,0834,12153,024.9,045.3,0.261,742.8,01.18,0.508
2016-01-25 00:17:00,1922E-3,5C000400,-0724,0833,12127,024.9,045.3,0.261,742.8,01.18,0.508
2016-01-25 00:18:00,1824E-3,5C000400,-0724,0834,12267,024.9,045.3,0.261,742.8,01.18,0.508
2016-01-25 00:19:00,1883E-3,5C000400,-0724,0834,12046,024.9,045.3,0.261,742.8,01.18,0.508
2016-01-25 00:20:00,1835E-3,5C000400,-0724,0835,12072,024.9,045.3,0.261,742.8,01.18,0.508
2016-01-25 00:21:00,1807E-3,5C000400,-0724,0834,12097,024.9,045.3,0.261,742.8,01.18,0.508
2016-01-25 00:22:00,1996E-3,5C000400,-0724,0834,12148,024.9,045.3,0.261,742.8,01.18,0.508
2016-01-25 00:23:00,1842E-3,5C000400,-0724,0834,12249,024.9,045.3,0.261,742.9,01.18,0.508
2016-01-25 00:24:00,1678E-3,5C000400,-0724,0834,12194,024.9,045.3,0.261,742.9,01.18,0.508
2016-01-25 00:25:00,2063E-3,5C000400,-0724,0834,12167,024.9,045.3,0.261,742.9,01.18,0.508
2016-01-25 00:26:00,1819E-3,5C000400,-0724,0834,12163,024.9,045.3,0.261,742.9,01.18,0.508
2016-01-25 00:27:00,1861E-3,5C000400,-0724,0834,12219,024.9,045.3,0.261,742.9,01.18,0.508
2016-01-25 00:28:00,1888E-3,5C000400,-0724,0833,12087,024.9,045.3,0.261,742.9,01.18,0.508
2016-01-25 00:29:00,1856E-3,5C000400,-0724,0833,12010,024.9,045.3,0.261,742.9,01.18,0.508
2016-01-25 00:30:00,1897E-3,5C000400,-0724,0834,12153,024.9,045.3,0.261,742.9,01.18,0.508
2016-01-25 00:31:00,2007E-3,5C000400,-0724,0834,12293,024.9,045.3,0.260,742.9,01.18,0.508
2016-01-25 00:32:00,1981E-3,5C000400,-0724,0833,12143,024.9,045.3,0.261,742.9,01.18,0.508
2016-01-25 00:33:00,1937E-3,5C000400,-0724,0834,12102,024.9,045.3,0.261,742.9,01.18,0.508
2016-01-25 00:34:00,1826E-3,5C000400,-0724,0834,12277,024.9,045.3,0.261,742.9,01.18,0.508
2016-01-25 00:35:00,1761E-3,5C000400,-0724,0834,12112,024.9,045.3,0.261,742.9,01.18,0.508
2016-01-25 00:36:00,1926E-3,5C000400,-0724,0833,12147,024.9,045.3,0.261,742.9,01.18,0.508
2016-01-25 00:37:00,1930E-3,5C000400,-0724,0834,12143,025.0,045.3,0.261,742.9,01.18,0.508
2016-01-25 00:38:00,1804E-3,5C000400,-0724,0834,12121,025.0,045.3,0.261,743.0,01.18,0.508
2016-01-25 00:39:00,1824E-3,5C000400,-0724,0834,12118,025.0,045.3,0.261,743.0,01.18,0.508
2016-01-25 00:40:00,1934E-3,5C000400,-0724,0834,12186,025.0,045.3,0.261,743.0,01.18,0.508
2016-01-25 00:41:00,1892E-3,5C000400,-0724,0833,12241,025.0,045.3,0.261,743.0,01.18,0.508
2016-01-25 00:42:00,1994E-3,5C000400,-0724,0834,12243,025.0,045.3,0.261,743.0,01.18,0.508
2016-01-25 00:43:00,1929E-3,5C000400,-0724,0834,12163,025.0,045.3,0.261,743.0,01.18,0.508
2016-01-25 00:44:00,1863E-3,5C000400,-0724,0834,12287,025.0,045.3,0.261,743.0,01.18,0.508
2016-01-25 00:45:00,1920E-3,5C000400,-0724,0834,12322,025.0,045.3,0.261,743.1,01.18,0.508
2016-01-25 00:46:00,2011E-3,5C000400,-0724,0834,12025,025.0,045.3,0.261,743.1,01.18,0.508
2016-01-25 00:47:00,1993E-3,5C000400,-0724,0833,12069,025.0,045.3,0.261,743.1,01.18,0.508
2016-01-25 00:48:00,1822E-3,5C000400,-0724,0834,12159,025.0,045.3,0.261,743.1,01.18,0.508
2016-01-25 00:49:00,1804E-3,5C000400,-0724,0834,12238,025.0,045.3,0.261,743.1,01.18,0.508
2016-01-25 00:50:00,1836E-3,5C000400,-0724,0834,12188,025.0,045.3,0.261,743.1,01.18,0.508
2016-01-25 00:51:00,1908E-3,5C000400,-0724,0834,12217,025.0,045.3,0.260,743.1,01.18,0.508
2016-01-25 00:52:00,1888E-3,5C000400,-0724,0834,12279,025.0,045.4,0.261,743.1,01.18,0.508
2016-01-25 00:53:00,1853E-3,5C000400,-0724,0835,12068,025.0,045.4,0.260,743.1,01.18,0.508
2016-01-25 00:54:00,1845E-3,5C000400,-0724,0834,12068,025.0,045.3,0.261,743.1,01.18,0.508
2016-01-25 00:55:00,1830E-3,5C000400,-0724,0834,12204,025.0,045.3,0.261,743.1,01.18,0.508
2016-01-25 00:56:00,1878E-3,5C000400,-0724,0833,12130,025.0,045.3,0.261,743.2,01.18,0.508
2016-01-25 00:57:00,1810E-3,5C000400,-0724,0834,12181,025.0,045.3,0.261,743.1,01.18,0.508
2016-01-25 00:58:00,1927E-3,5C000400,-0724,0834,12122,025.0,045.3,0.261,743.1,01.18,0.508
2016-01-25 00:59:00,1747E-3,5C000400,-0724,0833,12179,025.0,045.4,0.261,743.1,01.18,0.508
2016-01-25 01:00:00,1816E-3,5C000400,-0724,0833,12177,025.0,045.3,0.260,743.1,01.18,0.508
2016-01-25 01:01:00,1808E-3,5C000400,-0724,0834,12070,025.1,045.3,0.261,743.1,01.18,0.508
2016-01-25 01:02:00,1761E-3,5C000400,-0724,0834,12182,025.1,045.4,0.260,743.1,01.18,0.508
2016-01-25 01:03:00,1938E-3,5C000400,-0724,0834,12115,025.0,045.3,0.261,743.1,01.18,0.508
2016-01-25 01:04:00,1787E-3,5C000400,-0724,0833,12126,025.0,045.3,0.260,743.1,01.18,0.508
2016-01-25 01:05:00,1803E-3,5C000400,-0724,0834,12248,025.1,045.3,0.261,743.1,01.18,0.508
2016-01-25 01:06:00,1981E-3,5C000400,-0724,0835,12049,025.1,045.3,0.260,743.2,01.18,0.508
2016-01-25 01:07:00,1855E-3,5C000400,-0724,0834,12058,025.1,045.3,0.261,743.2,01.18,0.508
2016-01-25 01:08:00,1918E-3,5C000400,-0724,0833,12065,025.1,045.3,0.260,743.2,01.18,0.508
2016-01-25 01:09:00,1722E-3,5C000400,-0724,0834,12240,025.1,045.3,0.261,743.2,01.18,0.508
2016-01-25 01:10:00,1825E-3,5C000400,-0724,0834,12063,025.1,045.4,0.261,743.2,01.18,0.508
2016-01-25 01:11:00,1838E-3,5C000400,-0724,0833,12093,025.1,045.3,0.261,743.3,01.18,0.508
2016-01-25 01:12:00,1937E-3,5C000400,-0724,0833,12006,025.1,045.3,0.261,743.3,01.18,0.508
2016-01-25 01:13:00,1987E-3,5C000400,-0724,0834,12301,025.1,045.4,0.261,743.3,01.18,0.508
2016-01-25 01:14:00,1948E-3,5C000400,-0724,0834,12118,025.1,045.3,0.261,743.3,01.18,0.508
2016-01-25 01:15:00,1873E-3,5C000400,-0724,0834,12101,025.1,045.3,0.261,743.3,01.18,0.508
2016-01-25 01:16:00,1861E-3,5C000400,-0724,0834,12246,025.1,045.3,0.261,743.2,01.18,0.508
2016-01-25 01:17:00,1939E-3,5C000400,-0724,0835,12238,025.1,045.4,0.260,743.2,01.18,0.508
2016-01-25 01:18:00,1940E-3,5C000400,-0724,0833,12104,025.1,045.3,0.261,743.3,01.18,0.508
2016-01-25 01:19:00,1868E-3,5C000400,-0724,0834,12070,025.1,045.3,0.260,743.2,01.18,0.508
2016-01-25 01:20:00,1809E-3,5C000400,-0724,0833,12196,025.1,045.3,0.261,743.2,01.18,0.508
2016-01-25 01:21:00,1811E-3,5C000400,-0724,0834,12100,025.1,045.3,0.260,743.3,01.18,0.508
2016-01-25 01:22:00,1903E-3,5C000400,-0724,0834,12197,025.1,045.3,0.261,743.3,01.18,0.508
2016-01-25 01:23:00,1861E-3,5C000400,-0724,0834,12163,025.1,045.3,0.260,743.3,01.18,0.508
2016-01-25 01:24:00,1862E-3,5C000400,-0724,0834,12021,025.1,045.3,0.261,743.2,01.18,0.508
2016-01-25 01:25:00,1801E-3,5C000400,-0724,0834,12224,025.1,045.3,0.260,743.3,01.18,0.508
2016-01-25 01:26:00,1852E-3,5C000400,-0724,0834,12154,025.1,045.3,0.261,743.3,01.18,0.508
2016-01-25 01:27:00,2036E-3,5C000400,-0724,0834,12263,025.1,045.3,0.260,743.3,01.18,0.508
2016-01-25 01:28:00,1739E-3,5C000400,-0724,0834,12144,025.1,045.3,0.261,743.3,01.18,0.508
2016-01-25 01:29:00,1854E-3,5C000400,-0724,0835,12081,025.1,045.3,0.260,743.3,01.18,0.508
2016-01-25 01:30:00,1866E-3,5C000400,-0724,0833,12174,025.1,045.3,0.261,743.4,01.18,0.508
2016-01-25 01:31:00,1882E-3,5C000400,-0724,0834,12202,025.1,045.3,0.260,743.3,01.18,0.508
2016-01-25 01:32:00,1865E-3,5C000400,-0724,0834,12280,025.1,045.3,0.261,743.3,01.18,0.508
2016-01-25 01:33:00,1922E-3,5C000400,-0724,0834,11989,025.1,045.3,0.260,743.4,01.18,0.508
2016-01-25 01:34:00,1825E-3,5C000400,-0724,0834,12093,025.1,045.3,0.261,743.4,01.18,0.508
2016-01-25 01:35:00,1813E-3,5C000400,-0724,0835,12092,025.1,045.4,0.260,743.4,01.18,0.508
2016-01-25 01:36:00,1830E-3,5C000400,-0724,0835,12179,025.1,045.3,0.261,743.4,01.18,0.508
2016-01-25 01:37:00,1784E-3,5C000400,-0724,0834,12136,025.1,045.3,0.260,743.4,01.18,0.508
2016-01-25 01:38:00,1925E-3,5C000400,-0724,0834,12044,025.1,045.3,0.261,743.3,01.18,0.508
2016-01-25 01:39:00,1863E-3,5C000400,-0724,0834,12118,025.2,045.4,0.261,743.3,01.18,0.508
2016-01-25 01:40:00,1926E-3,5C000400,-0724,0834,12189,025.2,045.3,0.261,743.3,01.18,0.508
2016-01-25 01:41:00,1875E-3,5C000400,-0724,0834,12138,025.1,045.3,0.260,743.4,01.18,0.508
2016-01-25 01:42:00,1771E-3,5C000400,-0724,0833,12236,025.2,045.3,0.261,743.4,01.18,0.508
2016-01-25 01:43:00,1851E-3,5C000400,-0724,0834,12062,025.2,045.3,0.260,743.4,01.18,0.508
2016-01-25 01:44:00,2006E-3,5C000400,-0724,0834,12127,025.2,045.3,0.261,743.4,01.18,0.508
2016-01-25 01:45:00,1868E-3,5C000400,-0724,0834,12200,025.2,045.3,0.260,743.4,01.18,0.508
2016-01-25 01:46:00,1772E-3,5C000400,-0724,0834,12102,025.1,045.3,0.261,743.5,01.18,0.508
2016-01-25 01:47:00,1919E-3,5C000400,-0724,0834,12247,025.2,045.3,0.260,743.5,01.18,0.508
2016-01-25 01:48:00,1844E-3,5C000400,-0724,0834,12155,025.2,045.3,0.261,743.6,01.18,0.508
2016-01-25 01:49:00,1812E-3,5C000400,-0724,0834,12067,025.2,045.3,0.260,743.6,01.18,0.508
2016-01-25 01:50:00,1860E-3,5C000400,-0724,0834,12106,025.2,045.3,0.261,743.6,01.18,0.508
2016-01-25 01:51:00,1898E-3,5C000400,-0724,0833,12074,025.2,045.3,0.260,743.6,01.18,0.508
2016-01-25 01:52:00,1952E-3,5C000400,-0724,0833,12255,025.2,045.3,0.261,743.6,01.18,0.508
2016-01-25 01:53:00,1912E-3,5C000400,-0724,0834,12248,025.1,045.3,0.260,743.7,01.18,0.508
2016-01-25 01:54:00,1933E-3,5C000400,-0724,0834,12235,025.2,045.3,0.261,743.7,01.18,0.508
2016-01-25 01:55:00,1943E-3,5C000400,-0724,0833,12107,025.2,045.3,0.260,743.7,01.18,0.508
2016-01-25 01:56:00,1886E-3,5C000400,-0724,0834,12305,025.2,045.3,0.261,743.7,01.18,0.508
2016-01-25 01:57:00,1882E-3,5C000400,-0724,0834,12200,025.2,045.3,0.260,743.7,01.18,0.508
2016-01-25 01:58:00,1867E-3,5C000400,-0724,0834,12141,025.2,045.3,0.261,743.8,01.18,0.508
2016-01-25 01:59:00,1881E-3,5C000400,-0724,0835,12233,025.2,045.3,0.260,743.8,01.18,0.508
2016-01-25 02:00:00,1927E-3,5C000400,-0724,0834,12134,025.2,045.3,0.261,743.8,01.18,0.508
2016-01-25 02:01:00,1894E-3,5C000400,-0724,0834,12216,025.2,045.3,0.260,743.8,01.18,0.508
2016-01-25 02:02:00,1906E-3,5C000400,-0724,0834,12167,025.2,045.3,0.261,743.9,01.18,0.508
2016-01-25 02:03:00,1835E-3,5C000400,-0724,0834,12040,025.2,045.3,0.260,743.9,01.18,0.508
2016-01-25 02:04:00,1911E-3,5C000400,-0724,0834,12176,025.2,045.3,0.261,743.9,01.18,0.508
2016-01-25 02:05:00,1859E-3,5C000400,-0724,0834,12213,025.2,045.3,0.260,743.9,01.18,0.508
2016-01-25 02:06:00,1922E-3,5C000400,-0724,0834,12078,025.2,045.4,0.261,743.9,01.18,0.508
2016-01-25 02:07:00,1962E-3,5C000400,-0724,0833,12176,025.2,045.3,0.260,743.9,01.18,0.508
2016-01-25 02:08:00,1834E-3,5C000400,-0724,0834,12184,025.2,045.3,0.261,743.9,01.18,0.508
2016-01-25 02:09:00,1933E-3,5C000400,-0724,0834,12037,025.2,045.3,0.260,743.9,01.18,0.508
2016-01-25 02:10:00,1825E-3,5C000400,-0724,0834,11998,025.2,045.3,0.261,744.0,01.18,0.508
2016-01-25 02:11:00,1873E-3,5C000400,-0724,0834,12177,025.2,045.3,0.260,744.0,01.18,0.508
2016-01-25 02:12:00,1803E-3,5C000400,-0724,0834,12206,025.2,045.4,0.261,744.0,01.18,0.508
2016-01-25 02:13:00,1813E-3,5C000400,-0724,0834,12042,025.2,045.3,0.260,744.0,01.18,0.508
2016-01-25 02:14:00,1905E-3,5C000400,-0724,0834,12188,025.2,045.3,0.261,744.0,01.18,0.508
2016-01-25 02:15:00,1823E-3,5C000400,-0724,0834,12243,025.2,045.3,0.260,744.0,01.18,0.508
2016-01-25 02:16:00,1879E-3,5C000400,-0724,0834,12199,025.2,045.3,0.261,744.0,01.18,0.508
2016-01-25 02:17:00,1850E-3,5C000400,-0724,0834,12254,025.2,045.3,0.260,744.0,01.18,0.508
2016-01-25 02:18:00,1810E-3,5C000400,-0724,0834,12167,025.3,045.3,0.261,744.0,01.18,0.508
2016-01-25 02:19:00,1943E-3,5C000400,-0724,0835,12290,025.2,045.3,0.260,744.0,01.18,0.508
2016-01-25 02:20:00,1876E-3,5C000400,-0724,0834,12165,025.2,045.3,0.261,744.0,01.18,0.508
2016-01-25 02:21:00,1914E-3,5C000400,-0724,0834,12156,025.2,045.3,0.260,744.1,01.18,0.508
2016-01-25 02:22:00,1888E-3,5C000400,-0724,0834,12121,025.2,045.3,0.261,744.1,01.18,0.508
2016-01-25 02:23:00,1932E-3,5C000400,-0724,0834,12173,025.2,045.3,0.260,744.1,01.18,0.508
2016-01-25 02:24:00,1935E-3,5C000400,-0724,0834,12139,025.2,045.3,0.260,744.1,01.18,0.508
2016-01-25 02:25:00,1864E-3,5C000400,-0724,0834,12176,025.2,045.3,0.260,744.1,01.18,0.508
2016-01-25 02:26:00,1978E-3,5C000400,-0724,0834,12234,025.2,045.3,0.260,744.1,01.18,0.508
2016-01-25 02:27:00,1859E-3,5C000400,-0724,0834,12214,025.2,045.3,0.260,744.1,01.18,0.508
2016-01-25 02:28:00,1845E-3,5C000400,-0724,0834,12264,025.2,045.3,0.260,744.1,01.18,0.508
2016-01-25 02:29:00,1924E-3,5C000400,-0724,0834,12149,025.2,045.3,0.260,744.1,01.18,0.508
2016-01-25 02:30:00,1937E-3,5C000400,-0724,0834,12160,025.2,045.4,0.260,744.2,01.18,0.508
2016-01-25 02:31:00,1874E-3,5C000400,-0724,0833,12172,025.3,045.4,0.260,744.2,01.18,0.508
2016-01-25 02:32:00,1832E-3,5C000400,-0724,0833,12146,025.2,045.3,0.260,744.2,01.18,0.508
2016-01-25 02:33:00,1805E-3,5C000400,-0724,0834,12104,025.3,045.4,0.260,744.2,01.18,0.508
2016-01-25 02:34:00,1897E-3,5C000400,-0724,0834,12197,025.2,045.3,0.260,744.2,01.18,0.508
2016-01-25 02:35:00,1753E-3,5C000400,-0724,0835,12128,025.3,045.3,0.260,744.2,01.18,0.508
2016-01-25 02:36:00,1987E-3,5C000400,-0724,0834,12187,025.3,045.4,0.261,744.2,01.18,0.508
2016-01-25 02:37:00,1865E-3,5C000400,-0724,0834,12163,025.3,045.3,0.260,744.2,01.18,0.508
2016-01-25 02:38:00,2079E-3,5C000400,-0724,0834,12177,025.3,045.3,0.261,744.3,01.18,0.508
2016-01-25 02:39:00,1892E-3,5C000400,-0724,0833,12198,025.3,045.3,0.260,744.3,01.18,0.508
2016-01-25 02:40:00,1869E-3,5C000400,-0724,0834,12134,025.3,045.3,0.261,744.3,01.18,0.508
2016-01-25 02:41:00,1937E-3,5C000400,-0724,0834,12142,025.3,045.3,0.260,744.3,01.18,0.508
2016-01-25 02:42:00,1843E-3,5C000400,-0724,0833,12224,025.3,045.4,0.261,744.3,01.18,0.508
2016-01-25 02:43:00,2054E-3,5C000400,-0724,0834,12071,025.2,045.3,0.261,744.3,01.18,0.508
2016-01-25 02:44:00,1832E-3,5C000400,-0724,0834,12304,025.3,045.3,0.260,744.3,01.18,0.508
2016-01-25 02:45:00,1794E-3,5C000400,-0724,0834,12130,025.3,045.3,0.261,744.4,01.18,0.508
2016-01-25 02:46:00,1907E-3,5C000400,-0724,0834,12190,025.3,045.3,0.260,744.4,01.18,0.508
2016-01-25 02:47:00,1815E-3,5C000400,-0724,0834,12034,025.3,045.3,0.261,744.4,01.18,0.508
2016-01-25 02:48:00,1918E-3,5C000400,-0724,0834,12101,025.3,045.3,0.260,744.4,01.18,0.508
2016-01-25 02:49:00,1864E-3,5C000400,-0724,0834,12068,025.3,045.3,0.260,744.4,01.18,0.508
2016-01-25 02:50:00,1901E-3,5C000400,-0724,0834,12280,025.3,045.3,0.260,744.4,01.18,0.508
2016-01-25 02:51:00,1788E-3,5C000400,-0724,0834,12136,025.3,045.3,0.260,744.4,01.18,0.508
2016-01-25 02:52:00,1842E-3,5C000400,-0724,0834,12141,025.3,045.3,0.260,744.5,01.17,0.508
2016-01-25 02:53:00,1815E-3,5C000400,-0724,0834,12083,025.3,045.4,0.260,744.5,01.17,0.508
2016-01-25 02:54:00,1864E-3,5C000400,-0724,0833,12299,025.3,045.3,0.260,744.5,01.17,0.508
2016-01-25 02:55:00,1885E-3,5C000400,-0724,0833,12221,025.3,045.3,0.260,744.5,01.17,0.508
2016-01-25 02:56:00,1929E-3,5C000400,-0724,0834,12191,025.3,045.3,0.260,744.5,01.17,0.508
2016-01-25 02:57:00,1819E-3,5C000400,-0724,0834,12241,025.3,045.4,0.260,744.5,01.17,0.508
2016-01-25 02:58:00,1758E-3,5C000400,-0724,0834,12150,025.3,045.3,0.261,744.5,01.17,0.508
2016-01-25 02:59:00,1783E-3,5C000400,-0724,0833,12145,025.3,045.3,0.260,744.6,01.17,0.508
2016-01-25 03:00:00,1714E-3,5C000400,-0724,0834,12251,025.3,045.3,0.260,744.6,01.17,0.508
2016-01-25 03:01:00,1917E-3,5C000400,-0724,0834,11994,025.3,045.3,0.260,744.6,01.17,0.508
2016-01-25 03:02:00,1826E-3,5C000400,-0724,0834,11997,025.3,045.3,0.260,744.6,01.17,0.508
2016-01-25 03:03:00,1876E-3,5C000400,-0724,0835,12068,025.3,045.3,0.260,744.6,01.17,0.508
2016-01-25 03:04:00,1801E-3,5C000400,-0724,0834,12187,025.3,045.3,0.260,744.6,01.17,0.508
2016-01-25 03:05:00,1806E-3,5C000400,-0724,0834,12110,025.3,045.3,0.260,744.7,01.17,0.508
2016-01-25 03:06:00,1944E-3,5C000400,-0724,0834,12124,025.3,045.3,0.260,744.7,01.17,0.508
2016-01-25 03:07:00,1908E-3,5C000400,-0724,0834,12206,025.3,045.3,0.260,744.7,01.17,0.508
2016-01-25 03:08:00,1765E-3,5C000400,-0724,0834,12284,025.3,045.3,0.260,744.7,01.17,0.508
2016-01-25 03:09:00,1968E-3,5C000400,-0724,0834,12142,025.3,045.3,0.260,744.7,01.17,0.508
2016-01-25 03:10:00,2006E-3,5C000400,-0724,0835,12101,025.3,045.3,0.260,744.7,01.17,0.508
2016-01-25 03:11:00,1984E-3,5C000400,-0724,0834,12228,025.3,045.3,0.261,744.7,01.17,0.508
2016-01-25 03:12:00,1936E-3,5C000400,-0724,0834,12185,025.3,045.3,0.260,744.7,01.17,0.508
2016-01-25 03:13:00,1844E-3,5C000400,-0724,0835,12224,025.4,045.3,0.260,744.7,01.17,0.508
2016-01-25 03:14:00,1950E-3,5C000400,-0724,0835,12116,025.3,045.3,0.260,744.7,01.17,0.508
2016-01-25 03:15:00,1832E-3,5C000400,-0724,0834,12220,025.3,045.3,0.260,744.7,01.17,0.508
2016-01-25 03:16:00,1887E-3,5C000400,-0724,0834,12078,025.3,045.3,0.260,744.7,01.17,0.508
2016-01-25 03:17:00,1973E-3,5C000400,-0724,0835,12326,025.3,045.3,0.260,744.7,01.17,0.508
2016-01-25 03:18:00,1859E-3,5C000400,-0724,0834,12227,025.3,045.3,0.260,744.7,01.17,0.508
2016-01-25 03:19:00,2003E-3,5C000400,-0724,0834,12281,025.3,045.3,0.260,744.7,01.17,0.508
2016-01-25 03:20:00,1841E-3,5C000400,-0724,0834,12187,025.4,045.3,0.260,744.8,01.17,0.508
2016-01-25 03:21:00,1975E-3,5C000400,-0724,0834,12066,025.3,045.4,0.260,744.8,01.17,0.508
2016-01-25 03:22:00,1986E-3,5C000400,-0724,0834,12205,025.3,045.3,0.260,744.8,01.17,0.508
2016-01-25 03:23:00,1723E-3,5C000400,-0724,0834,12136,025.4,045.3,0.260,744.8,01.17,0.508
2016-01-25 03:24:00,1758E-3,5C000400,-0724,0834,12177,025.3,045.3,0.260,744.8,01.17,0.508
2016-01-25 03:25:00,1726E-3,5C000400,-0724,0834,12254,025.3,045.3,0.260,744.8,01.17,0.508
2016-01-25 03:26:00,1943E-3,5C000400,-0724,0834,11987,025.4,045.4,0.260,744.9,01.17,0.508
2016-01-25 03:27:00,1679E-3,5C000400,-0724,0834,12061,025.3,045.3,0.260,744.9,01.17,0.508
2016-01-25 03:28:00,1928E-3,5C000400,-0724,0834,12239,025.4,045.3,0.260,744.9,01.17,0.508
2016-01-25 03:29:00,1898E-3,5C000400,-0724,0834,12041,025.3,045.4,0.260,744.9,01.17,0.508
2016-01-25 03:30:00,1937E-3,5C000400,-0724,0833,12199,025.3,045.3,0.260,744.9,01.17,0.508
2016-01-25 03:31:00,1786E-3,5C000400,-0724,0835,12110,025.4,045.3,0.260,744.9,01.17,0.508
2016-01-25 03:32:00,1896E-3,5C000400,-0724,0834,12157,025.4,045.3,0.260,744.9,01.17,0.508
2016-01-25 03:33:00,1777E-3,5C000400,-0724,0834,12235,025.4,045.3,0.260,744.9,01.17,0.508
2016-01-25 03:34:00,1882E-3,5C000400,-0724,0834,12179,025.3,045.3,0.260,745.0,01.17,0.508
2016-01-25 03:35:00,1924E-3,5C000400,-0724,0833,12084,025.4,045.4,0.260,745.0,01.17,0.508
2016-01-25 03:36:00,1854E-3,5C000400,-0724,0834,12199,025.4,045.4,0.260,745.0,01.17,0.508
2016-01-25 03:37:00,1911E-3,5C000400,-0724,0834,12114,025.4,045.3,0.260,745.0,01.17,0.508
2016-01-25 03:38:00,1783E-3,5C000400,-0724,0834,12052,025.3,045.3,0.260,745.0,01.17,0.508
2016-01-25 03:39:00,1902E-3,5C000400,-0724,0833,12135,025.4,045.3,0.260,745.0,01.17,0.508
2016-01-25 03:40:00,1862E-3,5C000400,-0724,0834,12183,025.4,045.3,0.260,745.0,01.17,0.508
2016-01-25 03:41:00,1858E-3,5C000400,-0724,0833,12158,025.4,045.3,0.260,745.0,01.17,0.508
2016-01-25 03:42:00,1951E-3,5C000400,-0724,0834,12177,025.4,045.4,0.260,745.0,01.17,0.508
2016-01-25 03:43:00,1825E-3,5C000400,-0724,0834,12225,025.4,045.3,0.261,745.0,01.17,0.508
2016-01-25 03:44:00,1958E-3,5C000400,-0724,0834,12188,025.4,045.3,0.260,745.0,01.17,0.508
2016-01-25 03:45:00,1747E-3,5C000400,-0724,0834,12075,025.4,045.4,0.260,745.1,01.17,0.508
2016-01-25 03:46:00,1901E-3,5C000400,-0724,0834,12109,025.4,045.4,0.260,745.1,01.17,0.508
2016-01-25 03:47:00,2038E-3,5C000400,-0724,0833,12031,025.4,045.3,0.260,745.1,01.17,0.508
2016-01-25 03:48:00,1961E-3,5C000400,-0724,0834,12231,025.4,045.3,0.260,745.1,01.17,0.508
2016-01-25 03:49:00,1918E-3,5C000400,-0724,0834,12094,025.4,045.3,0.260,745.2,01.17,0.508
2016-01-25 03:50:00,1770E-3,5C000400,-0724,0834,12043,025.4,045.3,0.260,745.2,01.17,0.508
2016-01-25 03:51:00,1920E-3,5C000400,-0724,0833,12152,025.4,045.3,0.260,745.1,01.17,0.508
2016-01-25 03:52:00,1809E-3,5C000400,-0724,0833,12187,025.4,045.3,0.260,745.1,01.17,0.508
2016-01-25 03:53:00,1884E-3,5C000400,-0724,0834,12108,025.4,045.4,0.260,745.1,01.17,0.508
2016-01-25 03:54:00,1754E-3,5C000400,-0724,0834,12064,025.4,045.4,0.260,745.1,01.17,0.508
2016-01-25 03:55:00,1768E-3,5C000400,-0724,0834,12170,025.4,045.4,0.260,745.2,01.17,0.508
2016-01-25 03:56:00,1860E-3,5C000400,-0724,0834,11936,025.4,045.3,0.260,745.1,01.17,0.508
2016-01-25 03:57:00,1903E-3,5C000400,-0724,0833,12027,025.4,045.3,0.260,745.2,01.17,0.508
2016-01-25 03:58:00,1962E-3,5C000400,-0724,0833,12015,025.4,045.3,0.260,745.2,01.17,0.508
2016-01-25 03:59:00,1849E-3,5C000400,-0724,0834,12205,025.4,045.4,0.260,745.2,01.17,0.508
2016-01-25 04:00:00,1817E-3,5C000400,-0724,0834,12303,025.4,045.3,0.260,745.2,01.17,0.508
2016-01-25 04:01:00,1885E-3,5C000400,-0724,0833,12172,025.4,045.3,0.260,745.2,01.17,0.508
2016-01-25 04:02:00,1824E-3,5C000400,-0724,0834,12146,025.4,045.3,0.260,745.3,01.17,0.508
2016-01-25 04:03:00,1951E-3,5C000400,-0724,0833,12034,025.4,045.3,0.260,745.2,01.17,0.508
2016-01-25 04:04:00,1983E-3,5C000400,-0724,0833,12174,025.4,045.3,0.260,745.3,01.17,0.508
2016-01-25 04:05:00,1825E-3,5C000400,-0724,0834,12118,025.4,045.4,0.260,745.3,01.17,0.508
2016-01-25 04:06:00,1738E-3,5C000400,-0724,0834,12119,025.4,045.3,0.260,745.3,01.17,0.508
2016-01-25 04:07:00,1845E-3,5C000400,-0724,0833,12127,025.4,045.3,0.260,745.3,01.17,0.508
2016-01-25 04:08:00,1909E-3,5C000400,-0724,0834,12259,025.4,045.3,0.260,745.3,01.17,0.508
2016-01-25 04:09:00,1938E-3,5C000400,-0724,0834,12200,025.4,045.3,0.260,745.3,01.17,0.508
2016-01-25 04:10:00,1905E-3,5C000400,-0724,0834,12167,025.5,045.3,0.260,745.3,01.17,0.508
2016-01-25 04:11:00,1806E-3,5C000400,-0724,0834,12122,025.4,045.4,0.260,745.4,01.17,0.508
2016-01-25 04:12:00,1794E-3,5C000400,-0724,0834,12295,025.4,045.3,0.260,745.4,01.17,0.508
2016-01-25 04:13:00,1767E-3,5C000400,-0724,0833,12103,025.5,045.3,0.260,745.4,01.17,0.508
2016-01-25 04:14:00,1708E-3,5C000400,-0724,0834,12303,025.5,045.3,0.260,745.4,01.17,0.508
2016-01-25 04:15:00,1883E-3,5C000400,-0724,0834,12191,025.5,045.3,0.260,745.4,01.17,0.508
2016-01-25 04:16:00,1906E-3,5C000400,-0724,0834,12215,025.5,045.3,0.260,745.4,01.17,0.508
2016-01-25 04:17:00,1834E-3,5C000400,-0724,0834,12209,025.5,045.3,0.260,745.4,01.17,0.508
2016-01-25 04:18:00,1905E-3,5C000400,-0724,0834,12285,025.5,045.3,0.260,745.4,01.17,0.508
2016-01-25 04:19:00,1690E-3,5C000400,-0724,0834,12254,025.5,045.3,0.260,745.4,01.17,0.508
2016-01-25 04:20:00,2016E-3,5C000400,-0724,0834,12015,025.4,045.3,0.260,745.5,01.17,0.508